TimeMST,TemperatureF,Dew PointF,Humidity,Sea Level PressureIn,VisibilityMPH,Wind Direction,Wind SpeedMPH,Gust SpeedMPH,PrecipitationIn,Events,Conditions,WindDirDegrees,DateUTC
12:09 AM,28.4,21.2,74,30.01,6.0,NNW,13.8,-,0.00,Snow,Light Snow,330,2013-02-10 07:09:00
12:53 AM,27.0,21.9,81,30.14,10.0,NNW,16.1,-,0.00,,Overcast,330,2013-02-10 07:53:00
1:40 AM,26.6,21.2,80,30.04,10.0,North,11.5,-,N/A,,Overcast,350,2013-02-10 08:40:00
1:53 AM,26.1,21.0,81,30.16,10.0,NW,8.1,-,N/A,,Overcast,320,2013-02-10 08:53:00
2:53 AM,26.1,21.0,81,30.18,10.0,WNW,3.5,-,N/A,,Overcast,300,2013-02-10 09:53:00
3:53 AM,26.1,21.0,81,30.20,7.0,NW,3.5,-,0.00,Snow,Light Snow,310,2013-02-10 10:53:00
4:19 AM,26.6,19.4,74,30.06,9.0,NW,11.5,16.1,0.00,,Overcast,320,2013-02-10 11:19:00
4:53 AM,25.0,19.9,81,30.22,10.0,NW,10.4,-,0.00,,Overcast,320,2013-02-10 11:53:00
5:53 AM,25.0,19.0,78,30.24,10.0,WNW,6.9,-,N/A,,Overcast,300,2013-02-10 12:53:00
6:53 AM,24.1,18.0,77,30.25,10.0,WNW,4.6,-,N/A,,Overcast,290,2013-02-10 13:53:00
7:46 AM,24.8,17.6,74,30.11,10.0,West,6.9,-,N/A,,Overcast,270,2013-02-10 14:46:00
7:53 AM,23.0,17.1,78,30.28,10.0,WNW,8.1,-,N/A,,Overcast,290,2013-02-10 14:53:00
8:17 AM,23.0,15.8,74,30.12,10.0,NW,11.5,-,N/A,,Mostly Cloudy,320,2013-02-10 15:17:00
8:34 AM,23.0,15.8,74,30.13,10.0,North,11.5,-,N/A,,Overcast,350,2013-02-10 15:34:00
8:53 AM,24.1,15.1,69,30.28,10.0,NNW,10.4,-,N/A,,Mostly Cloudy,340,2013-02-10 15:53:00
9:02 AM,23.0,15.8,74,30.14,10.0,NNW,12.7,-,N/A,,Mostly Cloudy,330,2013-02-10 16:02:00
9:15 AM,21.2,14.0,74,30.14,10.0,NNW,12.7,-,N/A,,Scattered Clouds,330,2013-02-10 16:15:00
9:53 AM,23.0,14.0,68,30.30,10.0,NNW,9.2,-,N/A,,Scattered Clouds,340,2013-02-10 16:53:00
10:04 AM,23.0,14.0,68,30.15,10.0,NNW,10.4,-,N/A,,Mostly Cloudy,340,2013-02-10 17:04:00
10:53 AM,23.0,16.0,74,30.31,9.0,NW,10.4,-,N/A,,Overcast,320,2013-02-10 17:53:00
11:46 AM,24.8,15.8,69,30.14,10.0,NW,13.8,-,N/A,,Mostly Cloudy,310,2013-02-10 18:46:00
11:53 AM,26.1,16.0,66,30.30,10.0,NW,11.5,-,N/A,,Mostly Cloudy,310,2013-02-10 18:53:00
12:03 PM,24.8,15.8,69,30.14,10.0,WNW,15.0,-,N/A,,Mostly Cloudy,300,2013-02-10 19:03:00
12:53 PM,26.1,16.0,66,30.29,10.0,NNW,13.8,-,N/A,,Mostly Cloudy,330,2013-02-10 19:53:00
1:53 PM,27.0,16.0,63,30.28,10.0,NW,10.4,-,N/A,,Overcast,320,2013-02-10 20:53:00
2:53 PM,28.0,16.0,61,30.27,10.0,NW,12.7,-,N/A,,Overcast,310,2013-02-10 21:53:00
3:24 PM,26.6,14.0,59,30.12,10.0,NW,10.4,-,N/A,,Mostly Cloudy,320,2013-02-10 22:24:00
3:53 PM,28.9,16.0,58,30.27,10.0,NW,9.2,-,N/A,,Mostly Cloudy,320,2013-02-10 22:53:00
4:36 PM,28.4,15.8,59,30.12,10.0,North,3.5,-,N/A,,Mostly Cloudy,350,2013-02-10 23:36:00
4:53 PM,28.0,15.1,58,30.27,10.0,Calm,Calm,-,N/A,,Mostly Cloudy,0,2013-02-10 23:53:00
5:12 PM,26.6,15.8,64,30.11,10.0,Calm,Calm,-,N/A,,Scattered Clouds,0,2013-02-11 00:12:00
5:20 PM,24.8,15.8,69,30.11,10.0,Calm,Calm,-,N/A,,Mostly Cloudy,0,2013-02-11 00:20:00
5:30 PM,24.8,14.0,64,30.11,10.0,WNW,3.5,-,N/A,,Partly Cloudy,290,2013-02-11 00:30:00
5:53 PM,21.0,12.9,71,30.28,10.0,Calm,Calm,-,N/A,,Clear,0,2013-02-11 00:53:00
6:53 PM,14.0,9.0,80,30.30,10.0,SW,4.6,-,N/A,,Clear,230,2013-02-11 01:53:00
7:53 PM,15.1,9.0,77,30.30,10.0,South,8.1,-,N/A,,Clear,190,2013-02-11 02:53:00
8:53 PM,16.0,10.0,77,30.28,10.0,South,9.2,-,N/A,,Clear,190,2013-02-11 03:53:00
9:53 PM,16.0,9.0,74,30.26,10.0,SSW,11.5,-,N/A,,Clear,210,2013-02-11 04:53:00
10:53 PM,17.1,9.0,71,30.24,10.0,SSW,12.7,-,N/A,,Clear,210,2013-02-11 05:53:00
11:53 PM,18.0,9.0,68,30.21,10.0,SSW,12.7,-,N/A,,Clear,200,2013-02-11 06:53:00